Regional Weather Roundup
Issued by NWS

Home | Current Version | Previous Version | Text Only | Print | Product List | Glossary Off
Versions: 1 2 3 4 5 6 7 8 9 10 11 12 13 14 15 16 17 18 19 20 21 22 23 24 25 26 27 28 29 30 31 32 33 34 35 36 37 38 39 40 41 42 43 44 45 46 47 48 49 50

000
ASUS43 KMPX 301010
RWRMN
WEATHER ROUNDUP FOR MINNESOTA
NATIONAL WEATHER SERVICE TWIN CITIES/CHANHASSEN MN
500 AM CDT SAT MAY 30 2015


NOTE: "FAIR" INDICATES FEW OR NO CLOUDS BELOW 12,000 FEET WITH NO
SIGNIFICANT WEATHER AND/OR OBSTRUCTIONS TO VISIBILITY. N/A MEANS
CURRENT SKY AND/OR WEATHER CONDITIONS ARE NOT AVAILABLE.

MNZ060>063-068>070-301100-
   Twin Cities Metro

CITY           SKY/WX    TMP DP  RH WIND       PRES   REMARKS
TWIN CITIES    PTCLDY    48  40  73 N15       30.13R
ST PAUL        CLOUDY    49  41  74 N15G23    30.14R
CRYSTAL        CLEAR     48  39  71 N13       30.14R
BLAINE         CLEAR     46  43  87 N13G18    30.14R
LAKEVILLE      CLOUDY    48  43  81 N10       30.12R
EDEN PRAIRIE   CLEAR     48  40  73 N10       30.12R
SOUTH ST PAUL  CLOUDY    51  41  69 N12G20    30.12S
LAKE ELMO      CLOUDY    48  43  81 N13G22    30.13R
$$
MNZ001>005-007-008-013>017-022>024-027-028-301100-
   Northwest Minnesota

CITY           SKY/WX    TMP DP  RH WIND       PRES   REMARKS
BEMIDJI        CLOUDY    37  33  89 N7        30.27R
HALLOCK        CLEAR     30  25  80 N8        30.38S WCI  23
ROSEAU         CLEAR     30  25  80 NW3       30.35R
WARROAD        CLOUDY    34  28  80 NW5       30.35R WCI  30
THIEF RVR FALL CLEAR     34  27  75 N12       30.35R WCI  25
CROOKSTON      CLEAR     34  28  80 N9        30.37R WCI  26
FOSSTON        CLEAR     30  28  93 N10       30.32R WCI  21
DETROIT LAKES  CLEAR     36  34  93 N8        30.29R
MOORHEAD       CLEAR     36  28  75 N9        30.34R
PARK RAPIDS    CLEAR     38  33  82 N15       30.26R
MAHNOMEN       FAIR      33  31  92 N10       30.31R WCI  25
$$
MNZ006-009>011-018-025>026-301100-
   North Central Minnesota

CITY           SKY/WX    TMP DP  RH WIND       PRES   REMARKS
BAUDETTE       CLOUDY    37  27  67 N10       30.31R
FLAG ISLAND    CLOUDY    37  27  65 N16G23    30.33R
INTL FALLS     CLOUDY    36  27  69 N12       30.28R
WASKISH        CLOUDY    36  30  80 N5        30.30R
BIG FORK       PTCLDY    36  30  80 NW6       30.26R
LONGVILLE      CLEAR     39  37  93 N6        30.24R
GRAND RAPIDS   CLEAR     37  30  75 N10       30.23R
CRANE LAKE     CLOUDY    37  32  81 N9G17     30.26R
ORR            CLOUDY    39  30  70 N2        30.21R
COOK           CLOUDY    39  34  81 N5        30.22R
WALKER         PTSUNNY   37  34  87 N5        30.26R
$$
MNZ012-019>021-037-301100-
   Northeast Minnesota

CITY           SKY/WX    TMP DP  RH WIND       PRES   REMARKS
DULUTH         CLEAR     43  35  73 N9        30.16R
HIBBING        CLEAR     38  34  85 N10       30.21R
EVELETH        CLEAR     39  34  81 N5        30.21R
DULUTH HARBOR  CLEAR     46  41  81 N21       30.16R
TWO HARBORS    CLEAR     46  39  76 N10G16    30.13R
SILVER BAY     PTCLDY    45  37  76 NW6       30.13R
GRAND MARAIS     N/A     47  34  60 N17G31    30.11R
G MARAIS ARPRT CLEAR     37  30  75 NW12G18   30.12R
$$
MNZ029>031-032-039>041-046>048-054>057-064-301100-
   West Central Minnesota

CITY           SKY/WX    TMP DP  RH WIND       PRES   REMARKS
FERGUS FALLS   CLEAR     37  32  81 N10G16    30.29R
WHEATON        CLEAR     36  30  80 NW13      30.31R
MORRIS         PTCLDY    41  36  81 N12       30.24R
ALEXANDRIA     PTCLDY    41  35  79 N14       30.24R
ELBOW LAKE     FAIR      39  35  87 N10       30.26R
WADENA         CLEAR     37  34  87 N9        30.24R
GLENWOOD       PTCLDY    41  36  81 N10       30.23R
APPLETON       PTCLDY    43  37  81 N12       30.24R
BENSON         PTCLDY    43  37  81 N5        30.23R
ORTONVILLE     PTCLDY    39  34  81 N17       30.26R
MADISON          N/A     43  36  75 N14       30.24R
WILLMAR        FAIR      46  41  81 N12       30.22R
$$
MNZ033>034-036-042>043-049>051-058-059-301100-
   Central Minnesota

CITY           SKY/WX    TMP DP  RH WIND       PRES   REMARKS
ST CLOUD       CLEAR     43  37  79 N7        30.19R
SAUK CENTRE    FAIR      42  37  85 N10       30.22R
PAYNESVILLE    CLEAR     40  37  89 NW3       30.21R
AITKIN         PTCLDY    41  34  75 NW7       30.20R
PINE RIVER     CLEAR     43  36  75 N12       30.26R
BRAINERD       PTCLDY    43  34  70 N9        30.22R
STAPLES        CLEAR     37  36  93 N8        30.24R
LONG PRAIRIE   FAIR      41  36  81 NW8       30.22R
LITTLE FALLS   CLEAR     43  34  70 N3        30.21R
LITCHFIELD     CLEAR     46  41  81 N9        30.19R
BUFFALO        CLEAR     46  40  78 N8        30.18R
MAPLE LAKE     CLEAR     46  41  84 NW12      30.18R
$$
MNZ037-044-045-052-053-301100-
   East Central Minnesota

CITY           SKY/WX    TMP DP  RH WIND       PRES   REMARKS
PRINCETON      CLEAR     45  39  81 N7        30.18R
MORA           PTCLDY    43  36  75 N5        30.19R
CAMBRIDGE      CLEAR     46  37  71 N7        30.15R
RUSH CITY      PTCLDY    44  38  78 N9        30.16R
MOOSE LAKE     CLEAR     41  36  81 N8        30.16R
HINCKLEY       FAIR      43  37  81 N10       30.17R
CLOQUET        CLEAR     39  34  81 N9        30.17R
MCGREGOR       CLEAR     41  36  81 N9        30.21R
$$
MNZ071>073-080-081-089-090-097-098-301100-
   Southwest Minnesota

CITY           SKY/WX    TMP DP  RH WIND       PRES   REMARKS
MONTEVIDEO     CLEAR     43  39  87 N10       30.23R
GRANITE FALLS  CLEAR     44  40  86 NW9       30.23R
CANBY          CLEAR     40  37  86 NW9       30.25R
MARSHALL       CLEAR     43  36  75 N13       30.21R
REDWOOD FALLS  FAIR      46  42  86 N8        30.18R
OLIVIA         CLEAR     45  39  81 N10       30.18S
PIPESTONE      MOCLDY    43  37  81 N10G16    30.19R
WINDOM         PTCLDY    46  43  87 N17       30.15R
WORTHINGTON    PTCLDY    46  39  76 N16G22    30.16R
JACKSON        MOCLDY    46  43  87 N13G20    30.14R
TRACY          CLEAR     43  41  93 N12G17    30.20R
SLAYTON        PTCLDY    43  41  95 N16G24    30.18R
$$
MNZ065>067-074>077-082>085-091>093-301100-
   South Central Minnesota

CITY           SKY/WX    TMP DP  RH WIND       PRES   REMARKS
MANKATO        CLOUDY    50  41  71 N14       30.12R
NEW ULM        PTCLDY    46  41  81 N7        30.15R
ST JAMES       PTCLDY    48  45  87 NW14      30.15R
FAIRMONT       CLOUDY    48  43  81 N20       30.11R
GLENCOE        CLEAR     47  42  84 N9G16     30.15R
FARIBAULT      CLOUDY    50  45  81 N13G18    30.11R
OWATONNA       CLOUDY    52  45  76 N15       30.09R
WASECA         CLOUDY    52  45  76 N16G25    30.10R
ALBERT LEA     CLOUDY    52  48  87 N13G26    30.07R
$$
MNZ078>079-086>088-094>096-301100-
   Southeast Minnesota

CITY           SKY/WX    TMP DP  RH WIND       PRES   REMARKS
ROCHESTER      LGT RAIN  51  49  92 N20G28    30.06R
RED WING       CLOUDY    52  45  76 N6        30.09R
STANTON        CLOUDY    51  44  75 N18       30.09R
DODGE CENTER   CLOUDY    52  48  87 N16       30.07R
WINONA         CLOUDY    54  52  94 N8G20     30.04R
AUSTIN         CLOUDY    52  48  87 N12G21    30.05R
PRESTON        CLOUDY    52  50  94 N15G21    30.03R
$$
ABBREVIATIONS USED IN REMARKS
   TC - TEMPERATURES IN CELSIUS
  WCI - WIND CHILL INDEX
   HX - HEAT INDEX
  VSB - VISIBILITY
$$


USA.gov is the U.S. government's official web portal to all federal, state and local government web resources and services.